Regional Weather Roundup
Issued by NWS Newport/Morehead, NC

Current Version | Previous Version | Text Only | Print | Product List | Glossary On
Versions: 1 2 3 4 5 6 7 8 9 10 11 12 13 14 15 16 17 18 19 20 21 22 23 24 25 26 27 28 29 30 31 32 33 34 35 36 37 38 39 40 41 42 43 44 45 46 47 48 49 50
000
ASUS42 KMHX 251624
RWRMHX
WEATHER ROUNDUP FOR EASTERN NORTH CAROLINA
NATIONAL WEATHER SERVICE NEWPORT/MOREHEAD CITY NC
1200 PM EDT SAT APR 25 2015

NOTE: "FAIR" INDICATES FEW OR NO CLOUDS BELOW 12,000 FEET
WITH NO SIGNIFICANT WEATHER AND/OR OBSTRUCTIONS TO VISIBILITY

NCZ015>017-031-032-045>047-102-103-251700-
NORTH COAST

CITY           SKY/WX    TMP DP  RH WIND       PRES   REMARKS
EDENTON        CLOUDY    60  46  61 E9        29.90F
ELIZABETH CITY CLOUDY    58  31  35 E10       29.92F
KITTY HAWK     CLOUDY    58  32  36 E3        29.92F
MANTEO         CLOUDY    58  28  31 E9        29.93F

$$

NCZ045>047-081-094-103-104-251700-
CENTRAL COAST

CITY           SKY/WX    TMP DP  RH WIND       PRES   REMARKS
FRISCO         CLOUDY    60  49  66 NW9       29.93F
SWANQUARTER      N/A     63 N/A N/A SW5       29.85F

$$

NCZ095-097-098-100-101-251700-
SOUTHERN COAST

CITY           SKY/WX    TMP DP  RH WIND       PRES   REMARKS
BEAUFORT       CLOUDY    67  56  67 SW9       29.92F
CEDAR ISLAND     N/A     61 N/A N/A NW2       29.97S
JACKSONVILLE   CLOUDY    64  54  69 SW8       29.92S
PINEY ISLAND   CLOUDY   N/A N/A N/A W3        29.92F
WILMINGTON     CLOUDY    61  54  77 W10       29.95R


$$

NCZ011>013-027>030-043-044-078>080-089-090>093-098-251700-
COASTAL PLAIN

CITY           SKY/WX    TMP DP  RH WIND       PRES   REMARKS
AHOSKIE        CLOUDY    55  42  61 CALM      29.91F
CLINTON        RAIN      56  55  97 SW3       29.94F
ELIZABETHTOWN  LGT RAIN  57  55  90 S3        29.91F
GOLDSBORO      LGT RAIN  61  51  70 W8        29.89F
GREENVILLE     CLOUDY    61  50  67 SW6       29.93F
HAVELOCK       CLOUDY    65  54  67 SW6       29.93F
KENANSVILLE    LGT RAIN  56  53  87 SW8G16    29.93S
KINSTON        CLOUDY    61  50  67 SW3       29.92F
NEW BERN       CLOUDY    64  52  64 SW5       29.93F
RICHLANDS      CLOUDY    61  50  67 SW17G30   29.93S
ROCKY MOUNT    CLOUDY    57  47  69 CALM      29.90F
WASHINGTON     CLOUDY    60  47  63 SW3       29.90F
WHITEVILLE     LGT RAIN  59  53  80 S5        29.92F

$$

AMZ130-135-150-152-154-156-158-170-250-252-270-ANZ085-086-088-633-658-670-251700-
MARINE OBSERVATIONS

STATION/POSITION TIME  TEMP    WIND        PRES    WAVE   SWELL
                       AIR SEA DIR/SP/G            HT/PER HT/PER
                 (UTC) (F)     (DEG/KT/KT) (MB)    (FT/S) (FT/S)
CHESAPEAKE LIGHT 1600   49      60/ 10/ 11 1014.4
64 E VA BEACH    1550   55 59   30/ 10/ 14 1013.3    2/12   2/12
DUCK             1600   54 55   70/  9/ 10 1012.5
2 E DUCK         1511      54                N/A     2/13   2/13
10 NE DUCK       NOT AVBL
OREGON INLET     1600   58 57   50/  7/ 10 1013.4
HATTERAS CG      1506   61 65  290/ 12/ 12 1013.0
DIAMOND BUOY     1550   63 73  320/ 12/ 14 1013.4    3/ 8   2/ 8
CAPE LOOKOUT     1600   66     240/  5/  8 1012.9
BEAUFORT LAB     1506   66 64  260/  5/  8 1012.5
27 SE WRIGHTSVLE 1600   65 71  260/ 19/ 23   N/A
5 SE WRIGHTSVLE  1508   66 65  240/ 14/ 19 1013.5
225 S CAPE HAT   1550   66 71  180/ 12/ 14 1015.6    5/ 9   5/ 9
41 SE CHARLESTON 1550   72 72  170/ 12/ 14 1013.2    3/ 7   2/ 7

$$



USA.gov is the U.S. government's official web portal to all federal, state and local government web resources and services.